Regional Weather Roundup
Issued by NWS

Home | Current Version | Previous Version | Graphics & Text | Print | Product List | Glossary On
Versions: 1 2 3 4 5 6 7 8 9 10 11 12 13 14 15 16 17 18 19 20 21 22 23 24 25 26 27 28 29 30 31 32 33 34 35 36 37 38 39 40 41 42 43 44 45 46 47 48 49 50
000
ASUS43 KDMX 230407
RWRIA

WEATHER ROUNDUP FOR IOWA
NATIONAL WEATHER SERVICE DES MOINES IA
1100 PM CDT TUE JUL 22 2014

NOTE: "FAIR" INDICATES FEW OR NO CLOUDS BELOW 12,000 FEET WITH NO
SIGNIFICANT WEATHER AND/OR OBSTRUCTIONS TO VISIBILITY.

* - THESE STATIONS ARE NOT NWS STATIONS...THUS NOT UNDER NWS
QUALITY CONTROL.  THEY ALSO DO NOT REPORT WEATHER SUCH
AS PRECIPITATION OR FOG.

IAZ001>003-012>014-020>022-031>034-043>046-230500-
   NORTHWEST IOWA

CITY           SKY/WX    TMP DP  RH WIND       PRES   REMARKS
CARROLL *      CLEAR     66  64  94 N6        30.16R
CHEROKEE *     CLEAR     68  63  83 N6        30.18S
DENISON *      CLEAR     70  64  83 NE6       30.15R
LE MARS *      CLEAR     66  63  88 N6        30.19S
ORANGE CITY *  CLEAR     72  57  60 N9G16     30.20S
SHELDON *      CLEAR     63  59  88 N5        30.19S
SIOUX CITY     CLEAR     74  62  66 NE6       30.17R
SPENCER        CLEAR     66  57  72 N8        30.18S
STORM LAKE *   CLEAR     70  61  73 N10       30.19R
$$

IAZ055>058-069>071-079>083-090>094-230500-
   SOUTHWEST IOWA

CITY           SKY/WX    TMP DP  RH WIND       PRES   REMARKS
ATLANTIC *     CLEAR     72  68  88 N13       30.13R
AUDUBON *      CLEAR     73  68  83 N8        30.16R
CLARINDA *     CLEAR     73  70  88 N5        30.13R
COUNCIL BLFS *   N/A     72  72 100 N8        30.14R
CRESTON *      CLEAR     73  68  83 N10       30.12R
HARLAN  *      CLEAR     70  68  94 N6        30.18R
LAMONI         PTCLDY    76  70  82 N9        30.10R
RED OAK *      CLEAR     73  70  88 N7        30.13R
SHENANDOAH *   CLEAR     73  70  88 N6        30.13R
$$

IAZ047>049-059>061-072>074-084-230500-
   CENTRAL IOWA

CITY           SKY/WX    TMP DP  RH WIND       PRES   REMARKS
AMES           PTCLDY    73  65  75 N9        30.11R
ANKENY *       CLEAR     75  66  73 N10       30.10R
CHARITON *     CLEAR     73  70  88 NW6       30.10R
DES MOINES     PTCLDY    78  66  66 N9        30.10R HX  80
GRINNELL*      PTCLDY    72  68  88 N6        30.09S
KNOXVILLE *    CLEAR     77  68  73 N12       30.08R
MARSHALLTOWN   CLEAR     70  66  87 N7        30.09R
PELLA *        PTCLDY    75  68  78 N9        30.09S
PERRY *          N/A     72  66  83 N7        30.13R
$$

IAZ004>006-015-016-023>025-035-036-230500-
   NORTH CENTRAL IOWA

CITY           SKY/WX    TMP DP  RH WIND       PRES   REMARKS
ALGONA *       CLEAR     70  59  68 N10       30.16R
CLARION *      CLEAR     66  61  82 NW8       30.14R
ESTHERVILLE    CLEAR     66  56  70 N10       30.18R
FORT DODGE *   CLEAR     70  61  73 N6        30.15R
MASON CITY     CLEAR     65  61  87 NW6       30.14R
FOREST CITY *  CLEAR     70  59  68 N12       30.14R
IOWA FALLS *     N/A     68  63  83 NW7       30.13R
$$

IAZ007>011-017>019-026>030-037>042-050>054-066-230500-
   NORTHEAST IOWA

CITY           SKY/WX    TMP DP  RH WIND       PRES   REMARKS
CEDAR RAPIDS   CLEAR     75  67  76 N10       30.05R
CHARLES CITY * CLEAR     68  63  83 N6        30.11R
DECORAH *      CLEAR     70  63  78 N7G13     30.08S
DUBUQUE        PTCLDY    75  67  76 N12       30.05R
MONTICELLO *   CLEAR     73  70  88 N7        30.05R
OELWEIN *      CLEAR     70  64  83 N6        30.09R
WATERLOO       CLEAR     69  65  86 NW5       30.07R
$$

IAZ064-065-067-068-078-230500-
   EAST CENTRAL IOWA

CITY           SKY/WX    TMP DP  RH WIND       PRES   REMARKS
DAVENPORT      PTCLDY    75  70  84 NW7       30.02R
IOWA CITY      CLEAR     80  70  71 N7        30.05R HX  83
MT. PLEASANT * CLOUDY    81  72  74 NW9       30.03S HX  84
MUSCATINE *    PTCLDY    79  72  78 N8        30.02S HX  82
QUAD CITIES    PTCLDY    82  71  69 NW7       30.00R HX  86
$$

IAZ062-063-075>077-085>089-095>099-230500-
   SOUTHEAST IOWA

CITY           SKY/WX    TMP DP  RH WIND       PRES   REMARKS
BURLINGTON     MOCLDY    78  77  96 NW3       30.01S FOG     HX  81
FAIRFIELD *    PTCLDY    75  72  88 NW8       30.05S
FORT MADISON * PTCLDY    79  77  94 N6        30.03R FOG     HX  83
KEOKUK *       CLEAR     77  77 100 CALM      30.01S FOG
OSKALOOSA *      N/A     73  70  88 N6        30.07S
CENTERVILLE *  CLEAR     75  73  94 N6        30.09R
OTTUMWA        PTCLDY    74  70  87 N7        30.06R
WASHINGTON *   CLEAR     77  72  83 N9        30.05R
$$

ABBREVIATIONS USED IN REMARKS
   TC - TEMPERATURES IN CELSIUS
  WCI - WIND CHILL INDEX
   HX - HEAT INDEX
  VSB - VISIBILITY
$$



USA.gov is the U.S. government's official web portal to all federal, state and local government web resources and services.